Погода в Верхнетамбовском

Россия / Хабаровский край     50°40′03″N   137°24′03″E
темп.,
°C
ветер,
м/с
пор.,
м/с
влажн.,
%
обл.,
%
осадки,
мм/ч
давл.,
гПа
погр.,
м
20 мая, пт
пт2001:00+3ссз359486 0.0 1009278
04:00+3ссз249487 0.1 1009203
07:00+3ссз228999 0.0 1010220
10:00+5вюв228387 0.1 1010389
13:00+7вюв237035 0.0 1009583
16:00+9ююз2465100 0.0 1007453
19:00+6юв2597100 3.4 1006199
22:00+6всв23100100 10.0 1006102
21 мая, сб
сб2101:00+6св2399100 2.5 100484
04:00+6св2399100 4.4 100376
07:00+6св2396100 1.7 100338
10:00+6св3697100 3.4 1003241
13:00+6всв2298100 3.3 100571
16:00+6в2396100 3.9 1005131
19:00+6всв239499 0.0 1006141
22:00+5всв239797 0.0 100752
22 мая, вс
вс2201:00+4св2397100 0.0 100644
04:00+4ссв2496100 0.0 1007192
07:00+5с259594 0.0 1008302
10:00+6ссз2589100 0.1 1009525
13:00+7всв1382100 0.1 1010576
16:00+5в349098 0.1 1010250
19:00+5в239399 0.0 1011157
22:00+4всв1296100 0.0 101234
23 мая, пн
пн2301:00+3всв2296100 0.0 101216
04:00+3всв229490 0.0 101218
07:00+5всв238360 0.0 1012136
10:00+8в3369100 0.0 1011502
13:00+8сз1178100 0.3 1010332
16:00+9ссв1183100 0.6 1008254
19:00+9в128884 0.0 100878
22:00+7ссв1197100 1.7 100916
24 мая, вт
вт2401:00+6сз2498100 1.1 1010164
04:00+4ссз3698100 1.3 1011216
07:00+4сз3798100 0.2 1013359
10:00+5сз3696100 0.3 1014399
13:00+5ссз2495100 0.1 1016349
16:00+7ссв248697 0.1 1016474
19:00+7в1291100 0.1 101750
22:00+6св2295100 0.1 101819